Centralia, IL

9:06 PM CDT on June 25, 2017 (GMT -0500)
Centralia Municipal

Weather History for KENL - January, 2013

Change the Weather History Date:

Saturday, January 19, 2013

  Actual Average (KSLO) Record (KSLO)
Temperature  
Mean Temperature 46 °F -  
Max Temperature 55 °F 36 °F 62 °F (1974)
Min Temperature 38 °F 18 °F -10 °F (1977)
Degree Days  
Heating Degree Days 18    
Moisture  
Dew Point 34 °F    
Average Humidity 63    
Maximum Humidity 75    
Minimum Humidity 50    
Precipitation  
Precipitation 0.00 in - - ()
Sea Level Pressure  
Sea Level Pressure 30.06 in    
Wind  
Wind Speed 14 mph (SSW)    
Max Wind Speed 23 mph    
Max Gust Speed 29 mph    
Visibility 10 miles    
Events      
Averages and records for this station are not official NWS values.
T = Trace of Precipitation, MM = Missing Value Source: NWS Daily Summary

Daily Weather History Graph

Daily Weather History Graph

Search for Another Location

Airport or City:

Trip Planner

Search our weather history database for the weather conditions in past years. The results will help you decide how hot, cold, wet, or windy it might be!

Date:

Astronomy

Jan. 19, 2013 Rise Set
Actual Time 7:10 AM CST 5:04 PM CST
Civil Twilight 6:41 AM CST 5:32 PM CST
Nautical Twilight 6:09 AM CST 6:05 PM CST
Astronomical Twilight 5:37 AM CST 6:36 PM CST
Moon 11:29 AM CST (1/19) 12:45 AM CST (1/19)
Length of Visible Light 10h 51m
Length of Day
9h 53m
First Quarter, 57% of the Moon is Illuminated
Jan 19
First Quarter
Jan 26
Full
Feb 3
Last Quarter
Feb 10
New
Feb 17
First Quarter

Hourly Weather History & Observations

Time (CST) Temp. Windchill Dew Point Humidity Pressure Visibility Wind Dir Wind Speed Gust Speed Precip Events Conditions
12:15 AM 39.7 °F 32.3 °F 30.2 °F 69% 30.18 in 10.0 mi SSW 12.7 mph - N/A   Clear
12:35 AM 39.6 °F 32.5 °F 30.2 °F 69% 30.18 in 10.0 mi SSW 11.5 mph - N/A   Clear
12:55 AM 40.3 °F 32.2 °F 30.6 °F 68% 30.19 in 10.0 mi SSW 15.0 mph 18.4 mph N/A   Clear
1:15 AM 39.4 °F 32.3 °F 30.9 °F 72% 30.20 in 10.0 mi SSW 11.5 mph - N/A   Clear
1:35 AM 39.4 °F 31.8 °F 31.1 °F 72% 30.19 in 10.0 mi South 12.7 mph 18.4 mph N/A   Clear
1:55 AM 39.7 °F 31.9 °F 30.9 °F 71% 30.19 in 10.0 mi SSW 13.8 mph - N/A   Clear
2:15 AM 39.4 °F 31.8 °F 31.1 °F 72% 30.18 in 10.0 mi South 12.7 mph - N/A   Clear
2:35 AM 39.6 °F 32.1 °F 30.9 °F 71% 30.18 in 10.0 mi South 12.7 mph - N/A   Clear
2:55 AM 39.2 °F 32.5 °F 30.7 °F 72% 30.18 in 10.0 mi South 10.4 mph 17.3 mph N/A   Clear
3:15 AM 38.8 °F 31.6 °F 30.6 °F 72% 30.17 in 10.0 mi SSW 11.5 mph - N/A   Clear
3:35 AM 38.8 °F 31.6 °F 30.6 °F 72% 30.16 in 10.0 mi SSW 11.5 mph - N/A   Clear
3:55 AM 39.4 °F 31.1 °F 30.2 °F 70% 30.16 in 10.0 mi SSW 15.0 mph 20.7 mph N/A   Clear
4:15 AM 39.4 °F 31.1 °F 30.4 °F 70% 30.15 in 10.0 mi SSW 15.0 mph - N/A   Clear
4:35 AM 39.6 °F 31.7 °F 30.4 °F 70% 30.15 in 10.0 mi SSW 13.8 mph - N/A   Clear
4:55 AM 39.6 °F 30.6 °F 30.2 °F 69% 30.14 in 10.0 mi SSW 17.3 mph - N/A   Clear
5:15 AM 39.2 °F 30.5 °F 30.2 °F 70% 30.13 in 10.0 mi South 16.1 mph 20.7 mph N/A   Clear
5:35 AM 38.8 °F 30.0 °F 30.2 °F 71% 30.13 in 10.0 mi South 16.1 mph - N/A   Clear
6:36 AM 39.2 °F 30.5 °F 30.2 °F 70% 30.12 in 10.0 mi South 16.1 mph - N/A   Clear
6:55 AM 38.3 °F 29.7 °F 30.0 °F 72% 30.12 in 10.0 mi South 15.0 mph - N/A   Clear
7:15 AM 38.7 °F 28.8 °F 30.0 °F 71% 30.11 in 10.0 mi South 19.6 mph 23.0 mph N/A   Clear
7:55 AM 39.7 °F 30.6 °F 30.2 °F 69% 30.11 in 10.0 mi South 18.4 mph 24.2 mph N/A   Clear
7:56 AM 39.2 °F 30.2 °F 30.2 °F 70% 30.11 in 10.0 mi South 17.3 mph 24.2 mph N/A   Clear
8:15 AM 40.5 °F 32.1 °F 30.2 °F 67% 30.11 in 10.0 mi South 16.1 mph 21.9 mph N/A   Clear
8:35 AM 41.2 °F 33.0 °F 30.7 °F 66% 30.11 in 10.0 mi South 16.1 mph - N/A   Clear
9:35 AM 44.6 °F 37.8 °F 31.6 °F 60% 30.10 in 10.0 mi South 15.0 mph 21.9 mph N/A   Clear
9:55 AM 46.2 °F 40.1 °F 31.8 °F 57% 30.10 in 10.0 mi South 13.8 mph 21.9 mph N/A   Clear
10:15 AM 47.5 °F - 32.4 °F 56% 30.10 in 10.0 mi South 13.8 mph 25.3 mph N/A   Clear
10:35 AM 48.9 °F - 32.2 °F 52% 30.08 in 10.0 mi South 19.6 mph 25.3 mph N/A   Clear
11:15 AM 50.4 °F - 32.9 °F 51% 30.05 in 10.0 mi South 21.9 mph 28.8 mph N/A   Clear
11:35 AM 50.9 °F - 33.3 °F 51% 30.04 in 10.0 mi SSW 18.4 mph 24.2 mph N/A   Clear
11:55 AM 51.3 °F - 33.6 °F 51% 30.01 in 10.0 mi South 23.0 mph 28.8 mph N/A   Clear
12:15 PM 52.0 °F - 34.0 °F 50% 30.00 in 10.0 mi South 20.7 mph 28.8 mph N/A   Clear
12:35 PM 52.7 °F - 35.6 °F 52% 29.99 in 10.0 mi South 17.3 mph 25.3 mph N/A   Clear
12:55 PM 53.2 °F - 35.4 °F 51% 29.98 in 10.0 mi SSW 21.9 mph 26.5 mph N/A   Clear
1:15 PM 53.8 °F - 36.1 °F 51% 29.97 in 10.0 mi South 16.1 mph 26.5 mph N/A   Clear
1:35 PM 54.3 °F - 36.0 °F 50% 29.96 in 10.0 mi South 16.1 mph 21.9 mph N/A   Clear
1:55 PM 54.7 °F - 37.0 °F 51% 29.96 in 10.0 mi South 18.4 mph 24.2 mph N/A   Clear
2:15 PM 54.9 °F - 37.4 °F 52% 29.95 in 10.0 mi South 18.4 mph 25.3 mph N/A   Clear
2:35 PM 55.0 °F - 36.7 °F 50% 29.94 in 10.0 mi South 18.4 mph 26.5 mph N/A   Clear
2:55 PM 54.9 °F - 37.0 °F 51% 29.93 in 10.0 mi South 19.6 mph 27.6 mph N/A   Clear
3:15 PM 55.0 °F - 36.7 °F 50% 29.94 in 10.0 mi SSW 17.3 mph 25.3 mph N/A   Clear
3:35 PM 55.0 °F - 36.7 °F 50% 29.94 in 10.0 mi South 18.4 mph 25.3 mph N/A   Clear
3:55 PM 54.9 °F - 36.9 °F 51% 29.95 in 10.0 mi SSW 15.0 mph 20.7 mph N/A   Clear
4:15 PM 54.0 °F - 37.2 °F 53% 29.95 in 10.0 mi South 16.1 mph 23.0 mph N/A   Clear
4:35 PM 52.7 °F - 37.2 °F 56% 29.95 in 10.0 mi South 17.3 mph 20.7 mph N/A   Clear
4:55 PM 51.8 °F - 37.0 °F 57% 29.95 in 10.0 mi South 15.0 mph 21.9 mph N/A   Clear
5:15 PM 50.9 °F - 36.7 °F 58% 29.96 in 10.0 mi South 15.0 mph - N/A   Clear
5:35 PM 50.5 °F - 36.5 °F 59% 29.97 in 10.0 mi SSW 13.8 mph 19.6 mph N/A   Clear
5:55 PM 50.5 °F - 36.3 °F 58% 29.98 in 10.0 mi SSW 12.7 mph - N/A   Clear
6:15 PM 49.3 °F - 36.5 °F 61% 29.98 in 10.0 mi SSW 15.0 mph 19.6 mph N/A   Clear
6:35 PM 49.3 °F - 36.9 °F 62% 29.99 in 10.0 mi SSW 16.1 mph 21.9 mph N/A   Clear
6:55 PM 49.1 °F - 37.0 °F 63% 30.00 in 10.0 mi SSW 16.1 mph 21.9 mph N/A   Clear
7:15 PM 48.2 °F - 37.4 °F 66% 30.00 in 10.0 mi SSW 16.1 mph 24.2 mph N/A   Clear
7:35 PM 48.2 °F - 37.6 °F 67% 30.01 in 10.0 mi SSW 15.0 mph 20.7 mph N/A   Clear
7:55 PM 47.5 °F - 37.8 °F 69% 30.02 in 10.0 mi SW 10.4 mph - N/A   Clear
8:15 PM 47.5 °F - 37.9 °F 69% 30.03 in 10.0 mi SW 11.5 mph - N/A   Clear
8:35 PM 46.2 °F 41.2 °F 37.8 °F 72% 30.04 in 10.0 mi SW 10.4 mph - N/A   Clear
8:55 PM 45.1 °F 39.9 °F 37.6 °F 75% 30.05 in 10.0 mi SW 10.4 mph - N/A   Clear
9:15 PM 45.0 °F 39.7 °F 37.4 °F 75% 30.05 in 10.0 mi SW 10.4 mph - N/A   Clear
9:35 PM 44.6 °F 39.7 °F 36.9 °F 74% 30.05 in 10.0 mi SW 9.2 mph - N/A   Clear
9:55 PM 44.2 °F 39.2 °F 36.7 °F 75% 30.05 in 10.0 mi SW 9.2 mph - N/A   Clear
10:15 PM 44.4 °F 39.5 °F 36.1 °F 73% 30.06 in 10.0 mi WSW 9.2 mph - N/A   Clear
10:35 PM 43.9 °F 38.8 °F 35.6 °F 73% 30.07 in 10.0 mi WSW 9.2 mph - N/A   Clear
10:55 PM 43.7 °F 38.6 °F 35.1 °F 72% 30.07 in 10.0 mi WSW 9.2 mph - N/A   Clear
11:15 PM 44.8 °F 39.0 °F 34.2 °F 66% 30.08 in 10.0 mi West 11.5 mph - N/A   Clear
11:35 PM 46.0 °F 41.9 °F 33.3 °F 61% 30.08 in 10.0 mi West 8.1 mph - N/A   Clear
11:55 PM 44.6 °F 40.2 °F 33.8 °F 66% 30.08 in 10.0 mi West 8.1 mph - N/A   Clear